Wind_Speed
31 30 28 28 26 23 20 17 13 11 12 15 17 18 18 19 19 19 19 19 20 21 21 21 21 21 21 21 22 22 22 23 23 25 27 27 27 27 27 25 24 23 23
21 19 16 15 14 12 10 9 9 11 13 15 16 17 18 18 19 19 19 20 21 21 21 22 21 21 21 21 22 22 21 21 22 24 26 27 27 27 28 27 26 24 24
10 9 7 6 6 5 6 7 9 11 13 15 16 17 18 18 19 19 20 20 21 21 21 22 22 22 21 21 22 22 21 21 21 21 22 24 25 26 28 29 28 27 26
5 5 3 1 2 5 7 9 10 12 14 16 17 18 19 19 20 20 21 21 21 21 22 22 22 22 22 22 22 22 22 21 21 20 21 21 23 26 27 28 29 29 29
2 0 2 3 5 6 8 10 11 13 15 16 17 18 19 20 21 21 21 21 21 22 22 22 22 23 23 23 23 23 23 22 22 22 22 21 22 24 25 26 29 30 31
2 3 4 6 8 9 11 12 14 15 17 18 19 20 20 20 21 22 22 21 22 22 22 23 23 23 23 23 23 24 24 23 23 23 22 22 22 22 23 24 28 30 31
4 5 7 8 10 12 13 15 17 18 19 20 21 22 22 22 22 22 22 22 23 23 23 22 22 23 23 23 23 23 24 24 24 24 23 23 23 22 23 24 25 27 31
6 7 8 10 12 14 15 17 19 20 22 23 23 24 24 24 24 23 23 23 23 23 22 22 22 22 22 22 22 23 23 24 23 24 24 23 23 23 24 24 24 25 27
9 10 11 12 14 15 17 18 19 21 22 23 23 23 24 24 24 24 23 23 23 22 22 21 21 21 21 21 21 21 22 23 23 23 24 24 23 23 24 24 25 26 27
10 11 12 13 14 15 16 17 19 20 20 21 22 22 23 23 22 22 22 22 21 21 21 20 20 20 20 20 20 20 21 21 22 23 23 23 23 23 23 23 24 24 26
11 12 12 12 13 14 15 16 16 17 17 18 18 19 19 19 19 19 19 19 19 19 19 19 18 19 19 18 18 19 20 20 20 21 22 23 23 23 23 23 24 24 25
12 12 13 13 13 14 15 16 16 16 15 15 15 15 15 16 16 16 17 17 18 18 18 18 18 18 19 18 18 18 18 19 19 20 20 21 22 22 23 23 24 25 26
13 13 14 15 16 16 16 16 16 15 14 13 13 12 12 12 13 13 14 14 15 16 16 17 17 17 17 17 17 17 17 17 17 18 19 20 20 21 22 23 24 25 26
15 15 16 16 17 17 18 17 16 15 14 13 12 11 10 10 10 10 11 11 12 13 14 14 14 15 15 16 16 16 16 16 16 17 18 19 19 21 22 23 23 25 26
16 17 17 18 18 18 19 18 17 17 16 15 13 12 11 10 9 8 8 8 7 7 8 9 10 11 11 12 13 13 13 13 14 15 15 16 17 19 20 21 23 24 25
17 17 17 17 18 19 20 20 19 18 18 17 16 15 13 12 11 10 9 8 6 4 3 3 4 5 5 6 7 8 9 9 10 11 12 13 14 16 18 19 21 22 24
16 17 17 17 18 19 20 20 20 20 19 19 18 17 16 16 15 14 12 11 10 9 7 5 3 2 1 1 0 2 3 4 5 7 8 10 12 14 16 17 19 21 23
15 16 16 17 18 18 19 20 21 21 21 20 20 19 19 18 18 17 16 15 14 14 12 10 9 8 7 6 5 4 3 2 3 4 6 9 11 12 14 15 17 19 21
15 15 15 16 17 17 18 19 20 21 21 22 21 21 20 20 20 19 19 18 17 17 16 15 13 12 11 10 9 8 7 6 5 6 7 8 9 10 12 13 15 17 19
14 15 15 15 16 16 17 18 19 19 20 21 21 21 21 21 20 20 20 19 19 19 18 18 17 15 14 13 12 11 10 9 9 8 9 9 10 11 11 13 15 16 18
13 14 14 15 15 15 16 16 17 18 19 19 20 21 21 21 20 20 20 20 19 19 18 18 17 17 15 14 14 13 13 12 12 12 12 12 12 12 13 14 15 16 17
13 13 14 14 14 14 14 15 16 16 17 17 18 18 19 19 19 19 19 19 19 18 18 17 17 16 16 15 15 14 14 13 13 13 13 13 14 14 15 15 16 18 19
11 12 13 13 13 14 14 14 15 15 15 16 16 16 16 17 17 17 18 17 17 17 17 16 16 15 15 14 14 13 13 13 13 13 14 14 15 15 16 17 18 19 20
9 10 11 11 12 13 13 14 14 14 14 14 14 14 14 15 15 15 16 16 16 15 15 15 15 14 14 14 13 13 13 13 13 14 14 15 16 17 17 18 19 21 22
7 8 9 10 11 11 12 13 13 13 13 13 13 13 13 13 13 14 14 14 15 15 15 15 14 14 14 14 14 14 14 14 14 14 15 16 17 17 18 19 20 22 23
6 6 7 8 10 10 11 12 12 12 12 12 12 12 12 11 11 12 12 13 13 13 13 14 14 14 15 15 15 15 15 15 16 16 16 17 18 18 19 20 21 22 23
Wind_Direction
255 258 258 257 254 247 244 238 232 235 249 258 263 267 269 270 270 270 270 272 274 274 273 270 268 266 264 264 263 266 267 262 257 253 250 248 247 245 242 242 243 242 242
247 248 238 233 232 224 221 229 239 251 258 263 269 272 273 274 274 274 274 274 274 274 273 270 267 266 265 264 262 263 265 261 258 254 250 249 247 246 242 240 241 241 241
219 207 195 201 208 223 243 258 262 264 267 270 273 275 276 277 277 277 277 276 275 273 272 270 267 265 263 263 262 262 262 259 257 257 256 251 246 244 241 239 239 241 241
161 162 166 228 270 271 275 274 273 272 273 274 274 276 277 278 279 278 278 277 276 274 271 269 267 265 263 261 260 261 261 259 258 259 259 255 248 245 243 240 241 241 240
105 52 310 305 298 290 287 283 278 276 276 277 277 278 279 280 279 278 277 277 275 274 272 269 267 265 263 260 259 258 259 258 259 261 262 260 253 249 245 244 245 244 243
355 329 314 306 301 296 291 288 284 283 281 280 280 280 280 281 280 278 277 277 276 275 272 269 267 264 262 260 258 257 256 256 256 258 260 261 261 258 254 252 249 245 244
353 331 318 309 303 298 293 290 288 287 285 284 281 280 280 280 279 279 277 277 277 274 272 269 267 265 263 260 258 256 255 255 256 257 258 258 260 260 261 259 254 248 245
347 331 319 311 306 300 296 293 291 289 287 285 283 281 281 280 280 278 277 276 275 273 271 269 267 265 263 262 259 257 256 255 256 256 257 258 259 260 261 261 260 256 253
345 333 324 317 312 307 303 300 296 293 291 288 286 284 282 281 280 278 276 274 273 271 269 268 266 264 263 261 259 258 257 256 256 257 258 258 260 260 259 260 261 261 260
346 339 332 327 322 316 311 307 303 299 296 292 288 285 283 282 281 278 275 273 271 270 268 265 264 264 263 262 260 259 258 258 257 257 258 259 261 262 261 261 261 262 262
2 356 349 343 336 331 326 321 315 309 304 300 296 292 289 286 282 279 276 273 270 268 266 266 265 263 262 261 261 261 259 260 260 260 260 260 261 262 262 263 263 264 265
18 14 9 3 357 350 344 339 332 326 318 311 306 302 296 292 288 283 278 275 272 269 266 265 264 263 262 262 263 262 261 261 261 263 263 264 264 264 265 265 265 265 266
29 26 22 16 10 4 359 356 352 347 340 331 323 315 308 303 297 290 284 280 275 271 268 265 262 261 263 263 263 264 261 261 262 263 264 265 266 266 267 267 268 268 268
36 32 28 23 20 16 14 12 10 7 3 358 351 344 335 325 316 305 297 290 282 275 270 266 261 260 262 263 264 263 261 261 264 265 266 268 269 269 270 270 271 272 272
40 38 34 31 28 25 23 23 22 21 19 16 13 10 5 359 352 343 331 318 306 289 274 267 265 267 267 267 266 263 260 262 265 268 271 272 273 274 274 274 275 275 275
41 39 36 34 31 29 29 29 29 29 28 29 29 28 28 26 22 19 16 13 10 358 328 283 276 280 277 273 265 259 256 261 265 270 276 279 281 281 281 280 281 281 281
41 39 37 36 34 33 33 34 33 34 35 37 38 38 38 38 40 42 41 43 46 49 55 62 59 36 27 37 271 261 256 264 275 283 290 293 295 295 293 290 288 287 286
38 38 37 37 36 35 36 37 37 37 39 40 41 42 44 46 48 50 52 56 58 60 64 69 73 71 73 75 74 68 60 30 344 325 318 315 313 310 306 303 301 299 297
34 34 34 35 36 37 37 38 39 41 42 43 44 45 48 50 52 54 56 59 60 63 65 68 72 73 74 74 72 68 61 50 32 11 356 345 339 333 326 321 316 312 309
31 32 33 34 35 37 38 39 40 42 43 44 45 47 49 51 54 57 58 61 62 64 66 67 69 70 71 71 70 66 61 54 45 35 25 15 6 358 350 342 336 329 324
29 30 31 32 34 36 37 39 40 42 43 45 46 48 50 53 55 57 58 60 61 62 64 65 66 67 68 68 66 64 61 56 51 45 40 34 28 20 12 4 357 351 345
29 29 30 31 33 35 37 37 39 41 43 45 46 48 50 52 54 56 57 58 59 60 60 61 62 63 63 64 62 60 56 53 48 43 39 33 28 23 18 12 6 1 357
27 29 29 29 31 34 36 37 38 39 41 42 45 47 49 51 53 54 54 56 56 57 57 58 57 56 56 55 53 50 47 44 40 36 31 27 23 19 16 14 11 8 5
20 24 27 27 27 27 29 32 34 36 37 40 42 45 48 50 51 51 51 52 53 53 53 52 51 49 48 45 43 40 37 33 29 25 21 19 17 16 14 13 11 10 9
7 14 19 19 18 18 19 23 27 31 34 37 39 42 44 47 48 48 48 49 50 50 50 49 47 44 42 40 37 33 29 26 23 19 16 13 12 11 10 9 9 9 9
343 353 1 6 9 10 11 14 17 22 27 31 34 37 39 41 44 46 46 47 47 47 47 46 44 42 39 37 34 31 28 24 21 18 15 12 10 8 8 7 8 8 9
Height
5793 5793 5793 5795 5797 5799 5800 5802 5803 5805 5807 5809 5810 5810 5810 5810 5809 5809 5808 5808 5808 5807 5806 5806 5806 5805 5805 5805 5805 5805 5805 5805 5806 5807 5807 5809 5811 5813 5815 5817 5819 5821 5823
5787 5788 5789 5791 5793 5794 5796 5798 5799 5801 5803 5804 5804 5804 5804 5803 5803 5802 5802 5801 5801 5800 5800 5800 5800 5799 5799 5799 5799 5800 5799 5799 5800 5800 5801 5803 5804 5806 5808 5811 5813 5815 5817
5784 5786 5787 5788 5790 5792 5793 5795 5796 5797 5798 5798 5798 5798 5798 5797 5797 5796 5795 5795 5794 5794 5794 5794 5793 5793 5793 5793 5794 5794 5794 5794 5794 5795 5795 5796 5797 5799 5802 5804 5807 5809 5811
5783 5784 5786 5787 5789 5790 5791 5792 5792 5793 5793 5793 5793 5792 5792 5791 5790 5790 5789 5789 5788 5787 5787 5787 5787 5787 5787 5787 5788 5788 5788 5788 5789 5789 5789 5790 5791 5793 5795 5798 5800 5802 5805
5783 5785 5785 5786 5787 5787 5788 5788 5788 5788 5788 5788 5787 5786 5786 5785 5784 5784 5783 5782 5782 5781 5781 5781 5781 5781 5781 5781 5782 5782 5783 5783 5783 5784 5784 5784 5785 5786 5788 5790 5793 5795 5797
5784 5784 5784 5785 5785 5785 5785 5784 5784 5783 5783 5782 5781 5780 5780 5779 5778 5778 5777 5776 5775 5774 5774 5774 5774 5775 5775 5775 5776 5776 5777 5777 5778 5778 5779 5779 5780 5781 5781 5783 5785 5787 5790
5784 5784 5783 5783 5783 5782 5781 5780 5779 5778 5777 5776 5775 5774 5773 5772 5771 5771 5770 5769 5769 5768 5767 5767 5768 5768 5769 5769 5770 5770 5771 5771 5772 5773 5773 5774 5774 5775 5776 5777 5778 5779 5782
5784 5783 5782 5781 5780 5779 5777 5776 5774 5773 5771 5770 5769 5767 5766 5765 5764 5764 5763 5763 5762 5762 5761 5761 5761 5762 5762 5763 5763 5764 5765 5765 5766 5767 5768 5768 5769 5769 5770 5771 5771 5773 5774
5783 5782 5780 5779 5777 5775 5773 5771 5769 5767 5765 5763 5762 5760 5759 5758 5757 5757 5757 5756 5755 5755 5755 5755 5755 5756 5756 5757 5757 5758 5759 5759 5760 5761 5762 5762 5763 5764 5765 5766 5767 5767 5768
5782 5780 5778 5776 5774 5772 5769 5767 5764 5762 5760 5757 5755 5754 5752 5751 5751 5750 5749 5749 5749 5749 5749 5749 5749 5750 5750 5751 5752 5752 5753 5754 5755 5756 5756 5757 5758 5759 5759 5760 5761 5762 5762
5781 5779 5777 5774 5772 5769 5767 5764 5760 5757 5755 5752 5750 5748 5746 5745 5744 5744 5743 5743 5743 5743 5743 5743 5744 5744 5745 5745 5746 5747 5747 5748 5749 5750 5751 5752 5753 5753 5754 5755 5755 5756 5756
5781 5779 5776 5774 5771 5768 5764 5761 5757 5754 5751 5748 5746 5743 5742 5740 5739 5738 5738 5737 5737 5737 5737 5738 5738 5739 5739 5740 5741 5742 5743 5744 5744 5745 5746 5746 5747 5748 5748 5749 5749 5749 5750
5782 5779 5777 5774 5771 5767 5763 5759 5755 5752 5748 5745 5742 5740 5738 5736 5735 5734 5733 5732 5732 5731 5732 5732 5733 5733 5734 5735 5736 5737 5738 5739 5740 5740 5741 5741 5742 5742 5742 5743 5743 5743 5743
5783 5781 5778 5775 5771 5768 5764 5759 5755 5751 5748 5744 5741 5738 5736 5734 5732 5730 5729 5728 5727 5727 5726 5727 5728 5729 5730 5730 5731 5732 5733 5734 5735 5736 5736 5737 5737 5737 5737 5737 5737 5737 5736
5785 5783 5780 5777 5773 5769 5765 5761 5757 5753 5749 5745 5741 5738 5735 5733 5730 5728 5727 5725 5724 5723 5723 5723 5724 5725 5725 5726 5727 5728 5729 5730 5731 5732 5732 5732 5732 5732 5732 5731 5731 5730 5730
5788 5785 5782 5779 5776 5772 5768 5764 5759 5755 5751 5747 5743 5740 5737 5734 5731 5729 5726 5724 5723 5722 5721 5721 5722 5722 5722 5723 5723 5724 5726 5727 5728 5728 5729 5728 5728 5727 5727 5726 5725 5724 5723
5791 5788 5785 5782 5779 5775 5771 5767 5763 5759 5754 5750 5747 5743 5740 5736 5733 5731 5728 5726 5724 5722 5721 5721 5721 5722 5722 5722 5722 5723 5724 5725 5726 5726 5726 5725 5724 5723 5722 5721 5719 5718 5716
5793 5791 5788 5785 5781 5778 5774 5770 5766 5762 5758 5754 5751 5747 5743 5740 5737 5734 5732 5730 5728 5726 5724 5724 5724 5724 5723 5723 5723 5724 5724 5724 5725 5724 5724 5723 5721 5720 5718 5716 5715 5713 5710
5796 5793 5791 5788 5784 5781 5777 5774 5770 5766 5763 5759 5755 5751 5748 5745 5742 5739 5737 5734 5732 5730 5729 5728 5727 5727 5726 5726 5726 5725 5725 5725 5725 5724 5723 5721 5719 5717 5715 5713 5711 5708 5705
5799 5796 5793 5790 5787 5784 5781 5778 5774 5771 5767 5764 5760 5757 5753 5750 5747 5745 5742 5740 5738 5736 5734 5733 5732 5731 5730 5729 5729 5728 5727 5726 5725 5724 5723 5721 5718 5716 5713 5711 5708 5704 5700
5801 5798 5796 5793 5790 5787 5784 5781 5778 5775 5771 5768 5765 5762 5759 5756 5753 5750 5748 5746 5744 5742 5740 5738 5737 5735 5734 5733 5732 5731 5730 5729 5727 5725 5723 5721 5718 5716 5712 5709 5705 5701 5697
5803 5801 5798 5795 5793 5790 5787 5784 5781 5778 5775 5772 5769 5766 5764 5761 5758 5756 5753 5751 5749 5747 5745 5743 5742 5740 5739 5737 5736 5734 5733 5731 5729 5727 5725 5722 5719 5716 5712 5708 5704 5700 5695
5805 5803 5800 5798 5795 5793 5790 5787 5784 5782 5779 5776 5773 5770 5768 5766 5763 5761 5758 5756 5754 5752 5750 5748 5746 5744 5743 5741 5739 5737 5735 5733 5731 5728 5726 5723 5719 5716 5712 5708 5703 5699 5693
5806 5804 5802 5800 5798 5795 5793 5790 5787 5784 5782 5779 5776 5774 5771 5769 5767 5765 5762 5760 5758 5756 5754 5752 5750 5748 5746 5744 5742 5739 5737 5735 5732 5729 5726 5723 5720 5716 5712 5708 5703 5698 5693
5807 5805 5804 5802 5799 5797 5795 5792 5790 5787 5784 5782 5779 5777 5774 5772 5770 5768 5766 5764 5762 5759 5757 5755 5753 5751 5748 5746 5744 5741 5739 5736 5733 5730 5727 5724 5720 5716 5712 5708 5703 5698 5693
5807 5806 5804 5802 5800 5798 5796 5794 5792 5789 5787 5784 5782 5779 5777 5775 5773 5771 5769 5767 5765 5762 5760 5758 5756 5754 5751 5749 5746 5743 5740 5738 5734 5731 5728 5724 5720 5716 5712 5708 5703 5698 5693